Lapse_Rate
9.4 9.0 8.3 7.7 6.8 6.4 6.3 5.7 5.3 5.0 5.3 5.0 4.2 4.1 3.9 3.5 2.6 3.3 3.1 3.8 3.0 5.4 6.0 7.0 6.2 6.2 6.3 6.3 6.5 5.8 6.5 6.5 6.5 6.5 6.5 5.9 6.3 6.2 5.8 5.4 5.2 4.2 3.7 3.3 4.3
9.2 9.3 9.3 8.8 8.0 7.1 6.8 6.3 5.6 5.3 5.0 5.1 4.8 4.2 3.9 3.9 3.0 3.1 3.3 4.9 5.8 6.2 6.2 6.1 6.3 6.2 5.2 6.1 5.3 5.5 6.5 6.5 6.5 6.5 6.5 6.3 5.9 5.5 5.9 5.8 5.8 3.8 2.9 3.8 4.8
9.2 9.2 9.2 9.2 8.8 8.5 7.4 6.5 6.1 6.0 5.1 4.9 5.3 4.9 4.3 4.0 4.4 4.0 5.1 4.7 5.6 6.3 6.3 6.3 6.1 6.1 5.4 5.2 5.0 5.6 6.5 6.5 6.2 5.9 5.3 6.3 6.2 6.3 5.8 6.5 5.3 4.0 4.4 4.3 3.7
8.2 9.0 9.1 9.3 9.1 9.4 8.6 7.4 6.6 6.2 5.4 4.6 5.1 5.5 4.9 4.8 6.5 6.1 5.6 6.1 6.0 5.8 6.0 6.2 6.0 6.2 6.1 6.5 4.9 6.5 5.3 6.1 5.9 5.9 6.1 6.5 6.3 6.3 5.6 5.1 5.1 4.0 2.5 3.5 3.9
8.1 7.9 8.1 8.3 8.6 8.4 9.1 8.4 7.6 7.0 6.0 4.9 4.5 5.4 5.5 5.1 4.9 6.3 5.5 6.5 4.9 4.7 5.2 5.1 5.4 5.8 6.5 6.0 5.4 6.5 6.3 5.4 5.8 4.8 5.5 5.8 6.2 6.3 5.7 4.2 4.2 2.8 2.8 3.0 3.2
8.1 7.9 8.0 7.7 7.7 7.8 8.1 8.9 8.3 7.5 6.0 5.4 4.9 4.8 6.0 6.6 5.7 6.7 6.8 6.7 6.4 5.0 4.9 5.0 5.6 5.2 5.6 5.5 6.4 5.4 5.1 5.3 5.1 5.1 5.1 6.2 5.9 5.8 5.0 4.2 3.9 3.7 2.0 1.7 2.3
8.4 8.2 8.2 8.0 7.7 7.6 7.6 8.1 8.2 7.9 6.3 5.8 5.6 5.5 6.3 6.4 6.0 6.7 6.1 7.5 7.3 5.8 5.9 5.6 5.4 6.7 5.5 6.5 4.8 5.1 6.5 6.5 6.3 5.7 6.3 4.7 6.5 6.5 3.9 3.7 3.8 3.0 1.7 2.5 2.0
8.5 8.3 7.8 8.0 7.7 7.7 7.7 8.1 7.5 7.1 6.2 6.4 6.2 5.4 6.7 8.2 6.4 5.8 6.1 6.0 6.5 7.1 6.9 6.4 5.8 6.1 6.0 5.3 5.9 6.5 6.5 6.5 6.5 6.3 5.8 5.4 6.5 6.5 2.9 3.0 3.6 2.6 1.2 1.2 1.8
9.1 8.2 7.7 8.0 7.9 7.7 7.6 7.6 7.1 6.3 6.4 6.7 5.9 5.3 6.8 7.8 6.4 6.4 5.0 5.9 6.7 7.1 6.9 8.0 7.3 5.8 6.0 6.5 6.5 6.5 6.5 6.5 6.5 5.9 6.5 6.5 6.5 6.4 4.0 4.5 4.0 2.9 1.8 1.6 1.5
9.3 8.7 7.7 7.8 7.8 7.6 7.4 7.1 6.2 6.2 5.8 7.0 7.0 6.4 6.5 7.0 7.5 6.8 6.7 6.2 6.8 6.6 6.6 6.5 5.4 6.5 6.5 6.5 6.5 6.5 6.5 6.5 6.5 6.5 6.5 6.5 6.5 6.5 4.0 4.5 3.3 2.2 1.8 1.7 1.5
8.8 9.2 8.0 7.7 8.2 7.3 6.7 5.1 5.2 6.3 7.5 6.3 6.8 7.1 6.5 5.3 8.1 6.6 6.8 6.8 6.9 5.8 6.5 5.5 6.5 6.5 6.5 6.5 6.5 6.5 6.5 6.5 6.5 6.5 6.5 6.5 6.5 6.5 4.9 4.7 4.3 2.7 1.3 1.2 1.2
9.2 9.1 8.3 7.5 7.2 7.1 6.5 6.0 7.2 6.4 6.8 6.2 6.5 7.1 6.5 7.7 6.9 6.7 6.3 6.7 6.3 6.5 6.5 6.5 6.5 6.5 6.5 6.5 6.5 6.5 6.5 6.5 6.5 6.5 6.5 6.5 6.5 6.5 6.5 5.7 4.2 4.4 1.9 1.6 1.6
9.4 9.3 8.6 7.5 6.6 6.1 6.8 7.0 6.3 7.1 6.7 7.0 6.9 7.5 7.7 7.5 7.0 6.3 7.1 6.5 6.5 6.5 6.5 6.5 6.5 6.5 6.5 6.5 6.5 6.5 6.5 6.5 6.5 6.5 6.5 6.5 6.5 6.5 6.4 5.4 5.3 5.4 2.6 2.2 2.0
9.0 9.3 9.0 8.0 6.3 6.0 5.5 7.3 6.5 7.8 6.5 6.5 6.5 6.6 7.7 7.8 6.6 6.8 7.4 6.7 6.4 6.5 6.5 6.5 6.5 6.5 6.5 6.5 6.5 6.5 6.5 6.5 6.5 6.5 6.5 6.5 6.5 6.5 6.5 6.5 6.5 4.5 2.1 2.4 1.6
9.2 9.0 9.3 8.4 6.6 6.5 6.8 7.2 7.2 7.0 6.5 6.5 6.6 6.4 6.7 6.7 6.8 6.6 6.6 7.0 6.5 6.5 6.5 6.5 6.5 6.5 6.5 6.5 6.5 6.5 6.5 6.5 6.5 6.5 6.5 6.5 6.5 6.5 6.5 6.5 6.5 6.6 2.3 1.4 1.7
9.2 9.2 9.3 7.6 6.4 6.7 7.7 7.5 7.6 6.5 6.5 6.5 6.4 6.5 6.5 6.5 6.6 6.6 6.9 6.8 7.1 6.5 6.5 6.5 5.9 6.5 6.5 6.5 6.5 6.5 6.5 6.5 6.5 6.5 6.5 6.5 6.5 6.5 6.5 6.5 6.5 6.2 3.7 3.2 3.6
9.0 8.8 9.1 9.3 6.3 7.5 7.3 6.8 6.5 6.5 6.5 6.5 6.5 6.5 6.5 6.5 6.5 6.5 6.5 6.5 6.5 6.5 6.5 6.5 6.5 6.5 6.3 6.5 6.5 6.5 6.5 6.5 6.5 6.5 6.5 6.5 6.5 6.5 6.5 6.5 6.5 6.5 4.1 3.2 1.5
8.9 8.9 8.2 8.2 6.9 7.3 6.6 6.5 6.5 6.5 6.5 6.5 6.5 6.5 6.5 6.5 6.5 6.5 6.5 6.5 6.5 6.5 6.5 6.5 6.5 6.5 6.5 6.5 6.5 6.5 6.5 6.5 6.5 6.5 6.5 6.5 6.5 6.5 6.5 5.8 4.2 4.1 3.6 2.1 1.7
8.7 6.5 6.1 5.9 6.6 6.1 6.7 6.5 6.5 6.5 6.5 6.5 6.5 6.5 6.5 6.5 6.5 6.5 6.5 6.5 6.5 6.5 6.5 6.5 6.5 6.5 6.5 6.5 6.5 6.5 6.5 6.5 6.5 6.5 6.5 6.5 6.5 6.5 6.5 6.5 6.3 5.1 4.3 4.3 2.4
5.5 5.7 5.1 6.2 7.0 6.4 6.5 6.5 6.5 6.5 6.5 6.5 6.5 6.5 6.5 6.5 6.5 6.5 6.5 6.5 6.5 6.5 6.5 6.5 6.5 6.5 6.5 6.3 6.5 6.5 6.5 6.5 6.5 6.5 6.5 6.5 6.5 6.5 6.5 6.5 6.5 6.5 5.0 3.1 3.2
6.0 7.1 4.9 6.9 5.8 6.7 6.5 6.5 6.5 6.8 6.6 6.5 6.5 6.5 6.5 6.5 6.5 6.5 6.5 6.5 6.5 6.5 6.5 6.5 6.5 6.5 6.5 6.5 6.5 6.5 6.5 6.5 6.5 6.5 6.5 6.5 6.5 6.5 6.5 6.5 6.5 6.5 3.9 2.3 2.3
6.8 6.5 4.9 5.8 6.5 6.4 6.5 6.5 6.8 6.5 6.3 6.5 6.5 6.5 6.5 6.5 6.5 6.5 6.5 6.5 6.5 6.5 6.5 6.5 6.5 6.5 6.5 6.5 6.5 6.5 6.5 6.5 6.5 6.5 6.5 6.5 6.5 6.5 6.5 6.5 6.3 5.4 3.6 2.7 1.8
7.0 7.3 4.8 5.6 6.5 6.5 6.5 6.5 6.6 6.5 6.5 6.5 6.5 6.5 6.5 6.5 6.5 6.5 6.5 6.5 6.5 6.5 6.5 6.5 6.5 6.5 6.5 6.5 6.5 6.5 6.5 6.5 6.5 6.5 6.5 6.5 6.5 6.5 6.5 6.5 4.9 4.5 2.7 2.4 2.3
6.7 6.5 4.5 4.8 5.2 6.5 6.5 6.5 6.5 6.9 6.5 6.5 6.5 6.5 6.5 6.5 6.5 6.5 6.5 6.5 6.5 6.5 6.1 6.4 6.5 6.5 6.5 6.5 6.5 6.5 6.5 6.5 6.5 6.5 6.5 6.5 6.5 6.5 6.5 6.5 6.4 4.4 2.3 1.7 1.8
6.6 6.6 6.1 6.5 6.4 6.5 6.5 6.5 6.5 6.5 6.6 6.7 6.5 6.5 6.5 6.5 6.5 6.5 6.5 6.5 6.5 6.5 6.5 6.5 6.5 6.5 6.5 6.5 6.5 6.5 6.5 6.5 6.5 6.5 6.5 6.5 6.5 6.5 6.5 6.5 6.0 2.7 2.5 2.4 2.3
6.8 6.9 6.9 6.8 6.8 6.5 6.5 6.5 6.5 6.5 6.5 6.5 6.5 6.5 6.5 6.5 6.5 6.5 6.5 6.5 6.5 6.5 6.5 6.5 6.5 6.5 6.5 6.5 6.5 6.5 6.5 6.5 6.5 6.5 6.5 6.5 6.5 6.5 5.9 3.6 5.4 3.6 3.6 3.6 3.0
6.1 7.2 7.1 6.4 6.5 6.5 6.5 6.5 6.5 6.5 6.6 6.7 6.5 6.5 6.5 6.5 6.6 6.6 6.7 6.7 6.5 6.5 6.5 6.5 6.5 6.5 6.5 6.5 6.5 6.5 6.5 6.5 6.5 6.5 6.5 6.5 6.5 6.5 6.5 6.5 5.7 3.7 2.9 3.2 2.8
Wind_Speed
23 23 21 19 24 25 23 21 20 21 17 15 12 12 14 17 19 5 8 12 10 14 3 1 4 6 5 3 1 2 1 4 5 3 1 2 6 2 3 5 4 3 7 8 14
23 24 23 21 21 23 25 21 21 20 22 16 13 10 10 15 6 11 19 18 20 13 4 5 5 7 2 3 2 4 3 6 3 4 3 2 4 4 4 4 4 6 7 15 14
23 25 23 23 21 21 23 22 21 22 21 21 13 10 7 10 5 8 3 15 13 11 4 3 5 5 6 4 5 5 6 1 5 2 5 3 2 1 5 2 4 11 14 14 7
25 25 26 23 23 22 22 24 21 21 23 21 16 10 3 2 6 2 7 13 12 7 4 3 5 4 6 7 6 6 10 10 6 3 3 2 2 2 4 6 5 8 15 13 11
25 24 25 26 25 22 23 24 22 21 24 24 24 11 3 4 10 15 11 4 6 7 7 6 4 4 6 6 6 6 8 9 5 7 5 2 3 3 4 8 3 8 12 13 13
25 25 24 25 24 25 22 22 22 20 21 24 25 14 5 11 7 20 21 7 9 6 7 8 7 8 5 9 5 5 11 12 4 7 7 5 5 3 6 8 9 10 12 12 13
26 25 24 25 24 25 23 21 23 22 22 23 26 10 10 15 6 6 10 3 5 8 8 11 11 3 3 3 7 6 4 4 4 5 6 5 6 8 10 10 10 10 10 10 14
25 25 24 23 24 25 21 21 22 25 26 24 25 14 11 8 30 22 21 10 8 8 15 9 9 6 5 3 5 1 3 2 5 5 4 10 10 8 12 9 15 12 9 9 13
25 25 24 24 26 25 22 22 25 28 27 24 13 9 9 7 19 17 17 14 10 6 5 12 5 8 3 4 2 2 3 7 6 9 5 6 6 10 5 8 8 8 9 8 10
24 24 24 25 25 25 24 24 31 27 13 12 12 6 7 10 8 21 15 13 9 6 3 4 4 5 3 4 8 7 7 6 6 5 8 7 9 8 7 6 10 10 10 10 9
27 24 25 26 24 25 17 5 6 1 6 8 4 11 6 18 5 9 15 10 14 5 8 6 5 13 16 13 6 5 5 9 6 9 6 9 7 11 11 6 10 10 10 11 11
22 26 25 25 27 26 8 2 2 2 9 17 20 17 25 4 4 9 13 13 14 17 9 4 19 12 10 13 13 11 12 9 7 5 6 8 12 11 9 8 12 13 10 11 8
22 23 24 25 30 11 3 6 4 12 7 9 9 16 14 9 10 8 18 15 12 14 20 19 13 15 16 18 19 18 15 7 8 3 1 2 6 8 11 7 13 17 11 9 12
21 21 21 23 10 6 7 1 8 6 6 5 8 10 15 9 13 13 10 17 7 21 21 15 15 24 18 21 17 17 6 11 7 3 4 4 5 7 10 15 11 10 10 13 11
20 18 20 18 7 3 6 2 3 1 5 8 9 7 15 15 11 12 20 16 19 9 10 14 18 18 21 21 12 13 8 6 2 0 1 2 3 6 13 14 19 9 11 10 10
21 21 19 9 4 7 14 8 2 3 7 5 7 13 16 23 17 2 16 12 23 12 20 15 10 20 14 17 18 6 5 3 4 3 5 6 6 5 9 17 9 6 7 7 6
23 24 18 10 9 8 11 5 4 6 7 6 6 11 24 23 25 19 16 20 17 18 16 23 20 9 13 9 8 11 7 1 2 2 7 9 9 10 8 7 8 8 8 7 8
22 24 13 14 21 11 5 4 9 7 16 16 13 13 21 19 23 28 23 21 20 22 11 14 15 24 6 10 8 15 11 6 7 5 4 8 7 6 17 11 8 8 9 8 8
24 6 6 10 18 6 6 11 5 6 7 11 17 7 13 21 11 21 27 24 28 24 16 15 14 9 8 6 19 6 9 12 1 1 2 5 6 8 2 8 6 8 6 7 7
2 5 9 16 13 6 7 17 5 11 17 10 6 7 6 9 17 25 26 23 26 29 22 8 9 15 6 8 5 14 9 6 3 4 5 5 5 7 6 9 7 8 8 7 6
2 4 7 9 5 3 7 6 12 17 15 3 6 7 6 6 14 14 19 17 34 33 32 17 10 12 9 12 18 4 9 4 5 6 5 2 6 9 16 11 12 9 9 9 8
2 5 5 2 3 3 7 3 6 13 10 12 12 16 18 11 9 8 21 24 36 31 36 31 3 10 26 4 15 23 14 19 8 6 8 4 6 4 5 9 9 9 8 6 7
2 5 6 4 3 1 2 7 8 16 13 6 11 6 9 9 7 5 8 15 18 25 29 25 9 8 6 3 3 15 19 11 4 3 7 10 5 5 8 8 8 10 8 8 8
2 3 4 1 2 4 2 2 4 5 7 12 20 16 9 10 10 10 8 9 18 15 23 32 10 11 13 30 15 11 20 19 15 9 10 16 6 4 3 10 8 9 10 10 11
3 3 4 3 3 3 2 4 7 6 4 6 9 21 19 10 13 13 10 9 15 16 21 19 19 21 15 4 18 18 19 21 23 28 16 22 21 15 8 8 10 10 9 8 9
2 3 2 3 7 9 7 3 7 13 3 7 10 16 15 17 17 22 16 11 9 5 18 13 12 18 21 11 19 18 20 24 27 26 23 11 8 9 13 7 5 9 9 10 9
3 3 3 5 2 1 4 7 7 10 6 9 10 14 16 17 14 14 8 10 11 8 12 10 10 21 17 8 13 10 27 20 19 22 21 20 22 9 8 9 10 10 9 10 12
Wind_Direction
338 330 321 322 324 326 326 330 326 329 266 265 268 285 301 310 316 285 250 220 192 226 216 235 258 256 283 282 272 27 50 267 254 220 131 163 116 82 150 119 58 32 153 167 154
337 332 324 320 310 317 318 326 324 322 320 258 261 271 300 320 298 267 244 230 234 181 173 211 226 226 236 242 281 126 176 232 286 352 128 81 86 157 117 137 93 75 58 125 150
335 329 325 321 319 304 314 320 320 321 314 303 250 257 293 336 303 245 228 223 219 176 182 213 278 192 201 231 235 199 225 215 316 35 34 111 67 57 125 238 195 171 157 155 161
334 330 329 320 317 312 305 313 318 318 326 315 257 240 258 106 264 221 170 140 165 179 142 220 256 209 199 220 233 235 253 251 262 286 58 36 352 141 165 218 140 168 168 159 170
332 333 331 325 317 313 305 305 308 312 311 317 313 209 201 192 236 285 256 192 164 159 185 205 240 203 201 196 241 210 242 259 245 193 161 37 301 221 255 260 270 146 159 177 183
333 332 333 329 322 319 304 298 303 305 308 307 300 179 205 235 260 254 262 233 198 164 200 201 218 212 239 231 192 245 227 241 233 228 182 176 243 127 260 264 266 161 186 187 188
334 334 334 330 320 317 304 300 299 302 298 296 289 215 225 227 239 304 327 259 219 188 204 214 230 172 206 239 227 217 215 308 273 221 219 158 278 234 239 252 246 236 202 208 203
335 333 334 335 328 322 304 301 298 294 292 291 277 243 244 229 243 263 272 290 270 234 204 227 225 217 185 282 330 219 80 209 272 219 231 144 252 251 251 248 235 234 244 221 214
334 335 331 335 333 328 316 308 294 280 277 278 280 215 242 220 230 229 236 237 265 241 211 230 234 208 250 159 299 312 211 231 286 234 165 171 243 228 236 204 211 219 235 229 225
329 336 335 333 335 332 326 309 280 278 267 251 249 191 252 233 210 214 215 216 219 208 245 214 195 189 191 136 197 207 214 237 213 222 173 192 237 260 256 227 225 224 232 234 231
332 334 334 329 331 327 333 328 2 61 240 234 297 215 293 230 283 197 196 194 211 204 183 185 181 210 205 218 209 212 219 227 263 226 144 202 217 241 254 240 243 244 240 242 237
330 326 331 328 324 319 309 264 286 15 297 293 277 264 246 341 299 213 158 186 194 212 168 169 219 207 203 214 226 222 234 254 270 217 150 218 233 232 230 241 238 241 232 234 238
324 325 330 329 319 319 272 242 47 13 249 274 233 241 246 248 238 237 176 183 195 200 194 199 208 191 203 210 217 227 227 229 218 182 241 220 271 249 255 250 258 253 229 226 224
324 322 329 333 325 335 307 81 29 17 263 248 207 240 208 229 231 210 206 181 212 205 197 215 215 188 205 219 211 228 194 230 217 121 238 125 276 288 293 280 262 247 232 235 234
312 317 326 328 291 261 283 283 153 61 261 210 201 204 177 200 135 223 216 190 213 188 171 208 187 209 210 212 202 226 197 207 142 181 194 274 295 259 237 263 263 248 237 224 232
312 312 315 321 283 263 298 321 218 251 247 250 169 183 165 196 208 224 193 220 202 211 209 210 187 197 202 210 211 155 123 75 61 103 252 187 199 237 233 238 246 234 194 203 205
310 306 300 283 264 311 322 323 232 218 313 241 197 194 189 193 207 201 185 203 197 211 223 212 223 216 181 187 173 175 123 112 288 243 238 190 229 239 245 233 186 186 183 206 197
308 306 285 259 259 256 275 209 240 218 235 291 312 272 201 192 206 205 212 195 227 192 201 203 210 215 187 184 161 178 170 169 199 203 225 206 235 241 220 223 170 175 167 169 182
318 291 265 250 239 200 217 229 212 242 283 355 320 266 241 206 182 194 207 195 203 210 189 204 220 153 186 148 166 179 189 167 58 194 143 227 279 318 208 212 140 158 145 180 197
305 293 269 259 217 207 233 229 233 243 278 354 294 285 241 225 200 189 196 191 201 207 207 195 200 198 171 117 210 176 145 163 170 232 246 259 235 225 230 222 181 157 162 174 163
273 288 275 273 119 174 249 212 248 246 265 216 272 301 316 323 261 202 194 189 200 197 204 230 184 209 140 194 186 129 183 160 160 174 194 217 253 213 218 203 178 181 174 175 181
276 271 269 53 263 193 231 260 195 259 248 241 244 256 268 292 302 271 205 212 194 195 196 208 302 183 196 173 186 197 187 187 194 208 212 165 258 201 192 154 148 170 173 173 172
253 276 275 122 254 252 313 274 281 257 268 263 252 252 254 280 277 285 258 219 224 204 198 195 186 202 122 11 181 203 207 194 205 103 200 204 247 273 163 165 173 161 181 172 167
257 287 300 113 217 266 277 266 290 280 292 265 261 262 237 273 276 273 298 282 250 225 222 204 182 203 193 197 180 184 190 200 202 223 206 230 213 277 189 178 195 190 180 177 179
198 244 230 291 314 275 241 206 291 290 216 314 266 251 259 265 265 287 270 327 264 221 210 203 202 210 224 183 183 202 196 198 207 221 203 235 232 224 226 212 207 202 188 174 181
236 249 306 288 288 281 287 253 276 288 253 307 302 291 275 251 249 280 300 329 293 343 209 212 212 209 222 198 189 199 203 207 213 216 230 237 244 201 216 214 196 213 189 198 194
207 231 240 253 256 241 234 256 269 321 282 245 312 315 306 279 307 297 324 290 273 318 298 221 188 201 216 189 210 235 216 213 219 223 221 228 235 201 239 217 198 201 196 184 193